Weather WX

World > North America > United States > Mississippi

Darling, Mississippi Regional Weather

Lat: 34.35N, Lon: 90.27W
Wx Zone: MSZ011
Feedback

Darling, MS Regional Weather

Expires:201906181900;;690639
ASUS44 KJAN 181810
RWRMS 

MISSISSIPPI HOURLY WEATHER ROUNDUP
NATIONAL WEATHER SERVICE JACKSON MS
100 PM CDT TUE JUN 18 2019

NOTE: "FAIR: INDICATES FEW OR NO CLOUDS BELOW 12,000 FEET WITH NO
SIGNIFICANT WEATHER AND/OR OBSTRUCTIONS TO VISIBILITY.


MSZ001>002-007>008-010>013-018>021-025>028-034>036-181900-
NORTHWEST MISSISSIPPI
  
CITY           SKY/WX    TMP DP  RH WIND       PRES   REMARKS
BATESVILLE     DRIZZLE   73  73 100 CALM      29.92F                  
CLARKSDALE     PTSUNNY   90  72  55 W7        29.91S HX  96           
CLEVELAND      FAIR      84  72  68 W8        29.91F                  
GREENWOOD      FAIR      83  73  72 SW6       29.91F                  
6HR MIN TEMP:  74; 6HR MAX TEMP:  83; 6HR PCP:  0.35;                

GREENVILLE     FAIR      84  72  67 W8        29.91F                  
6HR MIN TEMP:  74; 6HR MAX TEMP:  84;                                

OLIVE BRANCH   PTSUNNY   77  77 100 CALM      29.91F                  
OXFORD         HVY RAIN  73  70  88 CALM      29.94S VSB 1            
TUNICA           N/A     79  72  78 CALM      29.92F                  
WINONA         CLOUDY    81  73  76 NW3       29.91F                  
$$


SKY/WX - Weather  TMP - Temperature  DP - Dew Point  RH - Relative Humidity
WIND - Wind Direction/Speed PRES - Barometric Pressure VSB - Visibility
WCI - Wind Chill Index E13G22 Wind - East Wind 13 mph/Gusts of 22 mph